Find Starlink 37354

NORAD ID: 68743 Int'l Des: 2026-082 Owner: SPXS Country: US Constellation: starlink operational
LEOCIRCULARRETROGRADE

現在のビュー

3D地球を読み込み中...

Starlink 37354について

説明を読み込み中...

次回通過

Passes for default location (London). Set your location on the main map for personalized predictions.

高度履歴

Loading altitude history...

軌道要素

1 68743U 26082R 26151.17650008 .00088137 00000-0 16032-2 0 9999
2 68743 97.2826 14.9526 0002678 76.0800 284.0749 15.49203351 7098
Epoch: May 31, 2026 • Age: 7 hours

現在のステータス

高度 446.4 km
速度 7.64 km/s
衛星直下点 -68.20°S, 115.12°E
打ち上げ日 Apr 15, 2026
運用期間 0.1 years
タイプ internet

技術仕様

分類 Payload
質量 575.00 kg
乾燥質量 530.00 kg
総質量 575.00 kg
長さ 0.30 m
直径 4.10 m
スパン 29.00 m
形状 Box + pan
製造者 SPXS
バスタイプ Starlink V2MO
フェーズステータス In Orbit
所有者/国 SPXS/US

Most Searched